Weather History for Lancaster, PA

Change the Weather History Date:

Saturday, January 1, 2005

  Actual Average Record
Temperature  
Mean Temperature 50 °F -  
Max Temperature 64 °F 40 °F 64 °F (2005)
Min Temperature 37 °F 23 °F 10 °F (1984)
Degree Days  
Heating Degree Days 14    
Moisture  
Dew Point 37 °F    
Average Humidity 69    
Maximum Humidity 93    
Minimum Humidity 39    
Precipitation  
Precipitation 0.00 in - - ()
Sea Level Pressure  
Sea Level Pressure 30.36 in    
Wind  
Wind Speed 5 mph (NW)    
Max Wind Speed 15 mph    
Max Gust Speed -    
Visibility 8 miles    
Events      
Averages and records for this station are not official NWS values.
T = Trace of Precipitation, MM = Missing Value Source: NWS Daily Summary

Daily Weather History Graph

Daily Weather History Graph

Search for Another Location

Airport:

Trip Planner

Search our weather history database for the weather conditions in past years. The results will help you decide how hot, cold, wet, or windy it might be!

Date:

Astronomy

Jan. 01, 2005 Rise Set
Actual Time 7:27 AM EST 4:50 PM EST
Civil Twilight 6:57 AM EST 5:20 PM EST
Nautical Twilight 6:23 AM EST 5:54 PM EST
Astronomical Twilight 5:50 AM EST 6:27 PM EST
Moon 10:40 PM EST 11:04 AM EST
Length of Visible Light 10h 23m
Length of Day
9h 23m
Waning Gibbous, 70% of the Moon is Illuminated
Jan 1
Waning Gibbous
Jan 3
Last Quarter
Jan 10
New
Jan 17
First Quarter
Jan 25
Full

Hourly Weather History & Observations

Time (EST) Temp. Windchill Dew Point Humidity Pressure Visibility Wind Dir Wind Speed Gust Speed Precip Events Conditions
12:53 AM 43.0 °F - 39.0 °F 86% 30.24 in 6.0 mi Calm Calm - N/A   Clear
1:53 AM 43.0 °F - 39.0 °F 86% 30.24 in 6.0 mi Calm Calm - N/A   Clear
2:53 AM 37.9 °F 35.5 °F 36.0 °F 93% 30.25 in 4.0 mi WNW 3.5 mph - N/A   Clear
3:53 AM 39.9 °F 37.8 °F 37.9 °F 93% 30.25 in 3.0 mi West 3.5 mph - N/A   Clear
4:53 AM 37.9 °F 34.4 °F 36.0 °F 93% 30.25 in 3.0 mi West 4.6 mph - N/A   Clear
5:53 AM 39.0 °F 35.7 °F 36.0 °F 89% 30.26 in 7.0 mi WSW 4.6 mph - N/A   Clear
6:53 AM 39.9 °F 37.8 °F 37.0 °F 89% 30.28 in 7.0 mi West 3.5 mph - N/A   Clear
7:53 AM 42.1 °F 38.4 °F 39.0 °F 89% 30.30 in 7.0 mi West 5.8 mph - N/A   Clear
8:53 AM 42.1 °F 39.2 °F 39.9 °F 92% 30.32 in 7.0 mi West 4.6 mph - N/A   Clear
9:53 AM 48.9 °F - 43.0 °F 80% 30.34 in 6.0 mi West 8.1 mph - N/A   Haze
10:53 AM 55.0 °F - 44.1 °F 67% 30.35 in 9.0 mi West 8.1 mph - N/A   Clear
11:53 AM 60.1 °F - 44.1 °F 55% 30.33 in 10.0 mi West 11.5 mph - N/A   Clear
12:53 PM 63.0 °F - 42.1 °F 46% 30.32 in 10.0 mi West 11.5 mph - N/A   Clear
1:53 PM 64.0 °F - 41.0 °F 43% 30.31 in 10.0 mi WNW 15.0 mph - N/A   Clear
2:53 PM 63.0 °F - 39.9 °F 43% 30.34 in 10.0 mi NW 8.1 mph - N/A   Clear
3:53 PM 61.0 °F - 36.0 °F 39% 30.36 in 10.0 mi WNW 11.5 mph - 0.00 in   Clear
4:53 PM 54.0 °F - 35.1 °F 49% 30.39 in 10.0 mi NNW 9.2 mph - N/A   Clear
5:53 PM 54.0 °F - 33.1 °F 45% 30.43 in 10.0 mi NNW 5.8 mph - N/A   Clear
6:53 PM 48.0 °F - 34.0 °F 58% 30.45 in 10.0 mi North 11.5 mph - N/A   Clear
7:53 PM 48.9 °F - 30.9 °F 50% 30.48 in 10.0 mi NNE 9.2 mph - N/A   Clear
8:53 PM 43.0 °F 36.8 °F 30.9 °F 62% 30.51 in 10.0 mi ENE 11.5 mph - N/A   Clear
9:53 PM 39.0 °F 33.4 °F 30.0 °F 70% 30.53 in 10.0 mi East 8.1 mph - N/A   Clear
10:53 PM 37.9 °F 32.1 °F 28.0 °F 68% 30.55 in 10.0 mi NE 8.1 mph - N/A   Clear
11:53 PM 37.9 °F 30.9 °F 27.0 °F 65% 30.54 in 10.0 mi NE 10.4 mph - N/A   Clear